CW9443 Weather Reports


Display with metric or nautical units.
time (UTC)temp
F
wind
direction
speed
MPH
gust
MPH
rain 1hr
in
rain 24hr
in
rain mn
in
humidity
%
barometer
mb
20260506073014 52 277 0.0 0.0 0.00 0.00 0.00 88 1016.3
20260506061516 53 277 0.0 0.0 0.00 0.00 0.00 87 1015.6
20260506050117 54 277 0.0 0.0 0.00 0.00 0.00 85 1015.2
20260506043036 55 277 0.0 0.0 0.00 0.00 0.00 83 1014.8
20260506041550 55 277 0.0 0.0 0.00 0.00 0.00 82 1014.7
20260506040033 55 277 0.0 0.0 0.00 0.00 0.00 80 1014.4
20260506033055 56 277 0.0 0.0 0.00 0.00 0.00 79 1014.1
20260506031556 57 277 0.0 0.0 0.00 0.00 0.00 78 1013.9
20260506030051 58 277 0.0 0.0 0.00 0.00 0.00 76 1013.6
20260506023111 59 277 0.0 0.0 0.00 0.00 0.00 72 1013.2
20260506021602 59 277 0.0 0.0 0.00 0.00 0.00 71 1013.1
20260506020100 59 277 0.0 0.0 0.00 0.00 0.00 71 1013.0
20260506013104 61 277 0.0 0.0 0.00 0.00 0.00 68 1012.9
20260506011606 62 277 0.0 0.0 0.00 0.00 0.00 66 1013.0
20260506010057 61 277 0.0 0.0 0.00 0.00 0.00 67 1013.0
20260506003003 62 277 2.0 0.0 0.00 0.00 0.00 68 1012.8
20260506001502 63 264 1.0 0.0 0.00 0.00 0.00 67 1012.7
20260506000001 63 271 1.0 0.0 0.00 0.00 0.00 63 1012.6
20260505233059 65 277 0.0 0.0 0.00 0.00 0.00 56 1012.6
20260505231558 65 266 1.0 0.0 0.00 0.00 0.00 56 1012.5
20260505230121 67 223 1.0 0.0 0.00 0.00 0.00 57 1012.5
20260505223007 66 261 1.0 0.0 0.00 0.00 0.00 55 1012.7
20260505221508 65 226 1.0 0.0 0.00 0.00 0.00 57 1012.8
20260505220025 66 294 2.0 0.0 0.00 0.00 0.00 56 1012.8
20260505213100 67 271 1.0 0.0 0.00 0.00 0.00 51 1013.0
20260505211605 67 273 2.0 0.0 0.00 0.00 0.00 54 1013.0
20260505210107 67 265 3.0 0.0 0.00 0.00 0.00 51 1013.0
20260505203004 66 199 3.0 0.0 0.00 0.00 0.00 53 1013.1
20260505201504 68 227 1.0 0.0 0.00 0.00 0.00 52 1012.8
20260505200004 67 219 3.0 0.0 0.00 0.00 0.00 53 1013.0
20260505193003 65 250 2.0 0.0 0.00 0.00 0.00 57 1013.2
20260505191502 65 220 2.0 0.0 0.00 0.00 0.00 57 1013.3
20260505190001 65 220 1.0 0.0 0.00 0.00 0.00 56 1013.3
20260505183016 66 225 1.0 0.0 0.00 0.00 0.00 59 1013.2
20260505181519 64 227 1.0 0.0 0.00 0.00 0.00 60 1013.1
20260505180015 64 226 1.0 0.0 0.00 0.00 0.00 59 1013.2
20260505173012 64 253 1.0 0.0 0.00 0.00 0.00 57 1013.0
20260505171507 62 265 1.0 0.0 0.00 0.00 0.00 57 1013.0
20260505170004 62 272 0.0 0.0 0.00 0.00 0.00 64 1012.9
20260505163054 61 294 0.0 0.0 0.00 0.00 0.00 69 1012.9
20260505161549 59 296 0.0 0.0 0.00 0.00 0.00 74 1012.7
20260505153053 57 296 0.0 0.0 0.00 0.00 0.00 80 1012.5
20260505151552 56 296 0.0 0.0 0.00 0.00 0.00 82 1012.5
20260505130104 51 265 0.0 0.0 0.00 0.00 0.00 91 1012.1
20260505123055 51 264 0.0 0.0 0.00 0.00 0.00 91 1012.0
20260505121552 51 264 0.0 0.0 0.00 0.00 0.00 91 1011.9
20260505120054 51 265 0.0 0.0 0.00 0.00 0.00 91 1011.9
20260505113046 51 265 0.0 0.0 0.00 0.00 0.00 90 1012.0
20260505111547 52 265 0.0 0.0 0.00 0.00 0.00 90 1012.1
20260505101550 53 265 0.0 0.0 0.00 0.00 0.00 88 1012.1
20260505100046 54 265 0.0 0.0 0.00 0.00 0.00 87 1012.2
20260505093041 54 265 0.0 0.0 0.00 0.00 0.00 85 1012.4
20260505091540 55 265 0.0 0.0 0.00 0.00 0.00 82 1012.5
20260505090043 55 265 0.0 0.0 0.00 0.00 0.00 80 1012.8
20260505083048 55 264 0.0 0.0 0.00 0.00 0.00 79 1013.0
20260505081538 55 265 0.0 0.0 0.00 0.00 0.00 78 1013.3
20260505080043 55 264 0.0 0.0 0.00 0.00 0.00 79 1013.3